Location: Ermatingen
(47.6706°N, 9.0857°E)
Time: 07:59:16
(UTC+00:00)

USA 238 DEB - Pass Details

Date: 18 September 2020
Orbit: 1006 x 1206 km, 63.4° (Epoch: 15 October)

Event Time Altitude Azimuth Distance (km) Brightness Sun altitude
Rises 19:32:20 0° 319° (NW) 3,941 7.9 -20.8°
Reaches altitude 10° 19:34:58 10° 318° (NW) 3,008 7.1 -21.2°
Maximum altitude 19:42:12 82° 232° (SW) 1,178 3.8 -22.2°
Enters shadow 19:45:39 36° 149° (SSE) 1,789 4.4 -22.8°
